Starlink 31706

operational
NORAD ID: 59437 Int'l Des: 2024-065 Owner: SPXS Country: US Constellation: starlink
LEOCIRCULAR

About Starlink 31706

Description loading...

Live Position

Loading 3D Globe...

Upcoming Passes

Altitude History

Altitude vs Time

uPlot chart will show altitude changes over time

Two-Line Element Set

1 59437U 24065S 25258.65034966 -.00001411 00000-0 -35487-4 0 9996
2 59437 53.1631 16.6012 0001172 70.7050 289.4078 15.30222905 82103
Epoch: Sep 15, 2025 • Age: 15 hours

Current Status

Altitude 492.0 km
Velocity 7.62 km/s
Sub-Earth Point -47.05°S, 149.57°E
Launch Date Apr 7, 2024
Age 1.4 years
Type internet

Technical Details

Classification Payload
Mass 730.00 kg
Dry Mass 700.00 kg
Total Mass 730.00 kg
Length 0.30 m
Diameter 4.10 m
Span 29.00 m
Shape Box + pan
Manufacturer SPXS
Bus Type Starlink V2M
Phase Status In Orbit
Owner/State SPXS/US

Large Constellations

Loading constellations...